Location: Devore Heights
(34.2372°N, 117.4156°W)
Time: 18:36:56
(UTC+00:00)

Vanguard 1 Rocket - Pass Details

Date: 14 September 2024
Orbit: 650 x 4218 km, 34.3° (Epoch: 04 October)

Event Time Altitude Azimuth Distance (km) Brightness Sun altitude
Rises 08:51:10 0° 198° (SSW) 4,499 - -49.5°
Reaches altitude 10° 08:54:10 10° 187° (S) 3,912 - -49.2°
Maximum altitude 09:03:21 30° 130° (SE) 3,664 - -48.3°
Exits shadow 09:04:41 30° 122° (ESE) 3,822 10.4 -48.2°
Drops below altitude 10° 09:18:26 10° 79° (E) 6,528 12.1 -46.6°
Sets 09:25:26 0° 71° (ENE) 8,017 12.8 -45.8°
